#timestamp,LO_Frequency,Hit,StdDev 
1541534415.6,286046989.1,N
1541534435.4,286046986.7,N
1541534455.2,286046983.9,N
1541534475.1,286046983.9,N
1541534476.0,286046983.9,N
1541534495.8,286046986.2,N
1541534515.6,286046989.9,N
1541534535.5,286046988.5,N
1541534555.3,286046993.7,N
1541534575.1,286046996.6,N
1541534595.9,286046999.1,N
1541534615.7,286047001.6,N
1541534635.6,286046996.9,N
1541534655.4,286046992.9,N
1541534675.2,286046991.5,N
1541534695.1,286046989.4,N
1541534696.0,286046989.4,N
1541534715.8,286046989.4,N
1541534735.6,286046989.2,N
1541534755.5,286046989.6,N
1541534775.3,286046991.0,N
1541534795.2,286046992.9,N
1541534815.9,286046993.9,N
1541534835.7,286046997.7,N
1541534855.6,286046998.6,N
1541534875.4,286047000.0,N
1541534895.2,286047002.7,N
1541534915.1,286047000.4,N
1541534916.0,286047000.4,N
1541534935.8,286047002.7,N
1541534955.7,286047003.5,N
1541534975.5,286047001.8,N
1541534995.3,286047003.6,N
1541535015.2,286046998.5,N
1541535035.0,286046993.5,N
1541535035.9,286046993.5,N
1541535055.7,286046990.7,N
1541535075.6,286046992.8,N
1541535095.4,286046995.7,N
1541535115.3,286046996.2,N
1541535135.1,286046991.8,N
1541535136.0,286046991.8,N
1541535155.8,286046991.8,N
1541535175.7,286046997.3,N
1541535195.5,286047003.7,N
1541535215.3,286047005.3,N
1541535235.2,286047007.7,N
1541535255.0,286047015.0,N
1541535255.9,286047015.0,N
1541535275.8,286047015.5,N
1541535295.6,286047013.7,N
1541535315.4,286047011.3,N
1541535335.3,286047012.1,N
1541535355.1,286047011.9,N
1541535375.8,286047007.8,N
1541535395.7,286047012.4,N
1541535415.5,286047011.6,N
1541535435.4,286047013.1,N
1541535455.2,286047018.4,N
1541535475.0,286047013.1,N
1541535475.9,286047013.1,N
1541535495.8,286047014.0,N
1541535515.6,286047008.2,N
1541535535.4,286047004.1,N
1541535555.3,286047002.1,N
1541535575.1,286046999.1,N
1541535595.9,286046995.9,N
1541535615.7,286046994.4,N
1541535635.5,286046994.4,N
1541535655.4,286046994.2,N
1541535675.2,286046995.5,N
1541535695.0,286046997.5,N
1541535695.9,286046997.5,N
1541535715.8,286046999.3,N
1541535735.6,286046993.7,N
1541535755.5,286046992.7,N
1541535775.3,286046988.5,N
1541535795.1,286046987.4,N
1541535815.9,286046983.8,N
1541535835.7,286046984.3,N
1541535855.5,286046987.2,N
1541535875.4,286046991.1,N
1541535895.2,286046993.6,N
1541535915.0,286046993.6,N
1541535916.0,286046993.6,N
1541535935.8,286046995.9,N
1541535955.6,286046997.7,N
1541535975.5,286046998.2,N
1541535995.3,286047002.2,N
1541536015.1,286047005.5,N
1541536035.9,286047001.9,N
1541536055.7,286047004.0,N
1541536075.5,286047004.2,N
1541536095.4,286047001.8,N
1541536115.2,286047000.2,N
1541536135.1,286046999.8,N
1541536136.0,286046999.8,N
1541536155.8,286047001.8,N
1541536175.6,286047003.0,N
1541536195.5,286047006.2,N
1541536215.3,286047014.0,N
1541536235.1,286047013.4,N
1541536255.9,286047007.7,N
1541536275.7,286047005.1,N
1541536295.6,286047003.6,N
1541536315.4,286047002.1,N
1541536335.2,286046996.5,N
1541536355.1,286046995.7,N
1541536356.0,286046995.7,N
1541536375.8,286046994.3,N
1541536395.6,286046998.8,N
1541536415.5,286047002.7,N
1541536435.3,286046999.6,N
1541536455.2,286046996.6,N
1541536475.9,286046993.8,N
1541536495.7,286046991.2,N
1541536515.6,286046985.7,N
1541536535.4,286046983.3,N
1541536555.2,286046980.3,N
1541536575.1,286046977.8,N
1541536576.0,286046977.8,N
1541536595.8,286046982.9,N
1541536615.7,286046986.7,N
1541536635.5,286046987.1,N
1541536655.3,286046987.0,N
1541536675.2,286046988.6,N
1541536695.0,286046989.6,N
1541536695.9,286046989.6,N
1541536715.7,286046991.1,N
1541536735.6,286046989.4,N
1541536755.4,286046993.8,N
1541536775.3,286046994.0,N
1541536795.1,286046993.5,N
1541536796.0,286046993.5,N
1541536815.8,286047003.5,N
1541536835.7,286047002.5,N
1541536855.5,286046993.7,N
1541536875.3,286046990.5,N
1541536895.2,286046988.8,N
1541536915.0,286046986.0,N
1541536915.9,286046986.0,N
1541536935.8,286046982.3,N
1541536955.6,286046981.5,N
1541536975.4,286046980.2,Y
1541536995.3,286046989.7,P
1541537015.1,286046992.7,P
1541537035.9,286046994.6,P
1541537055.7,286046996.7,N
1541537075.5,286046999.9,N
1541537095.4,286047001.3,N
1541537115.2,286047007.2,N
1541537135.0,286047010.5,N
1541537135.9,286047010.5,N
1541537155.8,286047012.5,N
1541537175.6,286047014.1,N
1541537195.5,286047016.3,N
1541537215.3,286047020.3,N
1541537235.1,286047017.7,N
1541537255.9,286047016.3,N
1541537275.7,286047014.5,N
1541537295.5,286047016.5,N
1541537315.4,286047020.3,N
1541537335.2,286047024.3,N
1541537355.1,286047026.6,N
1541537356.0,286047026.6,N
1541537375.8,286047025.8,N
1541537395.6,286047026.1,N
1541537415.5,286047026.4,N
1541537435.3,286047024.8,N
1541537455.2,286047025.1,N
1541537475.9,286047021.6,N
1541537495.7,286047021.9,N
1541537515.6,286047020.7,N
1541537535.4,286047022.4,N
1541537555.2,286047024.3,N
1541537575.1,286047027.8,N
1541537576.0,286047027.8,Y
1541537595.8,286047013.7,P
1541537615.7,286047017.4,P
1541537635.5,286047021.0,P
1541537655.3,286047026.8,Y
1541537675.2,286047000.1,P
1541537695.0,286047000.0,N
1541537695.9,286047000.0,N
1541537715.7,286047000.5,N
1541537735.6,286047000.0,N
1541537755.4,286047001.0,N
1541537775.3,286047006.4,N
1541537795.1,286047007.3,N
1541537796.0,286047007.3,N
1541537815.8,286047000.6,N
1541537835.7,286046995.9,N
1541537855.5,286046988.9,N
1541537875.3,286046986.7,N
1541537895.2,286046982.3,N
1541537915.0,286046980.7,N
1541537915.9,286046980.7,N
1541537935.8,286046980.1,N
1541537955.6,286046978.6,N
1541537975.4,286046978.6,N
1541537995.3,286046979.9,N
